Tracking 17154 objects as of 3-August-2015
HD Live streaming from Space Station

COSMOS 2378

Track COSMOS 2378 now!
10-day predictions
COSMOS 2378 is classified as:


NORAD ID: 26818
Int'l Code: 2001-023A
Perigee: 969.4 km
Apogee: 1,016.3 km
Inclination: 82.9 °
Period: 104.8 minutes
Semi major axis: 7363 km
RCS: 1.9621 m2 (large)
Launch date: June 8, 2001
Source: Commonwealth of Independent States (former USSR) (CIS)

Normally part of a six-satellite constellation.
Your satellite tracking list
Your tracking list is empty





NASA's NSSDC Master Catalog

Two Line Element Set (TLE):
1 26818U 01023A   15214.61459814  .00000002  00000-0 -13864-4 0  9991
2 26818 082.9287 284.5706 0031838 306.2285 053.5909 13.73882202709535

Source of the keplerian elements: AFSPC

N2YO: 221